Tracking 27124 objects as of 31-Mar-2023
HD Live streaming from Space Station
objects crossing your sky now

STARLINK-3358

Track STARLINK-3358 now!
10-day predictions
STARLINK-3358 is classified as:


NORAD ID: 51109
Int'l Code: 2022-005F
Perigee: 546.0 km
Apogee: 547.7 km
Inclination: 53.2 °
Period: 95.4 minutes
Semi major axis: 6917 km
RCS: Unknown
Launch date: January 19, 2022
Source: United States (US)
Launch site: AIR FORCE EASTERN TEST RANGE (AFETR)
Your satellite tracking list
Your tracking list is empty




NASA's NSSDC Master Catalog

Two Line Element Set (TLE):
1 51109U 22005F   23089.45803616  .00026478  00000-0  16744-2 0  9991
2 51109  53.2177  76.0194 0001221  92.1981 267.9151 15.08863593 66322
Source of the keplerian elements: AFSPC